FW1481 Weather Reports


Display with metric or nautical units.
time (UTC)temp
F
wind
direction
speed
MPH
gust
MPH
rain 1hr
in
rain 24hr
in
rain mn
in
humidity
%
barometer
mb
20260504023016 58 312 0.0 1.0 0.00 0.00 0.00 52 1006.1
20260504021610 60 312 0.0 3.0 0.00 0.00 0.00 49 1006.1
20260504020039 59 334 0.0 2.0 0.00 0.00 0.00 49 1006.0
20260504014547 60 334 0.0 4.0 0.00 0.00 0.00 47 1005.9
20260504013105 61 322 1.0 4.0 0.00 0.00 0.00 45 1005.9
20260504011533 63 324 2.0 5.0 0.00 0.00 0.00 44 1005.8
20260504010120 65 341 2.0 5.0 0.00 0.00 0.00 42 1005.3
20260504004534 67 350 3.0 10.0 0.00 0.00 0.00 39 1005.1
20260504003101 68 330 4.0 9.0 0.00 0.00 0.00 38 1005.1
20260504001552 70 4 4.0 9.0 0.00 0.00 0.00 36 1005.3
20260504000016 71 354 4.0 11.0 0.00 0.00 0.00 34 1005.1
20260503234553 71 344 5.0 12.0 0.00 0.00 0.00 35 1005.1
20260503233033 71 330 5.0 14.0 0.00 0.00 0.00 32 1005.0
20260503231556 71 29 9.0 15.0 0.00 0.00 0.00 31 1005.1
20260503230031 72 359 14.0 21.0 0.00 0.00 0.00 29 1005.1
20260503224556 72 332 10.0 18.0 0.00 0.00 0.00 30 1005.0
20260503223035 72 8 10.0 16.0 0.00 0.00 0.00 31 1004.9
20260503221544 72 4 11.0 21.0 0.00 0.00 0.00 31 1004.9
20260503220027 73 4 7.0 17.0 0.00 0.00 0.00 33 1004.8
20260503214552 73 4 13.0 21.0 0.00 0.00 0.00 31 1004.9
20260503213130 73 322 7.0 17.0 0.00 0.00 0.00 34 1005.0
20260503211549 73 354 9.0 18.0 0.00 0.00 0.00 34 1004.9
20260503210057 72 4 8.0 19.0 0.00 0.00 0.00 36 1005.0
20260503204520 72 314 10.0 25.0 0.00 0.00 0.00 35 1005.1
20260503203049 73 345 9.0 18.0 0.00 0.00 0.00 37 1005.1
20260503201510 72 14 9.0 18.0 0.00 0.00 0.00 39 1005.2
20260503200033 72 18 12.0 19.0 0.00 0.00 0.00 37 1005.2
20260503194559 72 289 9.0 22.0 0.00 0.00 0.00 39 1005.4
20260503193034 71 350 8.0 19.0 0.00 0.00 0.00 40 1005.5
20260503191606 71 296 6.0 14.0 0.00 0.00 0.00 41 1005.6
20260503190024 71 350 5.0 16.0 0.00 0.00 0.00 45 1005.7
20260503184604 70 328 6.0 15.0 0.00 0.00 0.00 45 1005.9
20260503183031 70 350 9.0 18.0 0.00 0.00 0.00 45 1005.9
20260503181609 68 4 6.0 15.0 0.00 0.00 0.00 47 1006.1
20260503180031 68 307 5.0 13.0 0.00 0.00 0.00 50 1006.2
20260503174602 67 329 5.0 10.0 0.00 0.00 0.00 49 1006.4
20260503173131 67 274 7.0 15.0 0.00 0.00 0.00 50 1006.6
20260503171527 65 296 4.0 15.0 0.00 0.00 0.00 54 1006.9
20260503120103 49 184 6.0 11.0 0.00 0.00 0.00 71 1010.4
20260503100105 50 250 2.0 4.0 0.00 0.00 0.00 65 1013.0
20260503081538 51 308 3.0 9.0 0.00 0.00 0.00 64 1013.2
20260503080105 52 264 10.0 15.0 0.00 0.00 0.00 59 1013.1
20260503071551 50 18 6.0 12.0 0.00 0.00 0.00 60 1013.3
20260503054557 49 231 3.0 10.0 0.00 0.00 0.00 61 1013.6
20260503053013 49 291 5.0 11.0 0.00 0.00 0.00 60 1013.8
20260503051545 49 286 4.0 10.0 0.00 0.00 0.00 59 1013.9
20260503050051 50 285 5.0 11.0 0.00 0.00 0.00 58 1014.0
20260503044523 50 270 6.0 11.0 0.00 0.00 0.00 57 1014.0
20260503043002 50 279 5.0 10.0 0.00 0.00 0.00 57 1014.2
20260503041543 50 270 6.0 9.0 0.00 0.00 0.00 56 1014.3
20260503040019 50 291 5.0 9.0 0.00 0.00 0.00 55 1014.5
20260503034601 51 248 4.0 9.0 0.00 0.00 0.00 54 1014.7
20260503033052 51 273 4.0 10.0 0.00 0.00 0.00 53 1014.9
20260503031550 51 300 5.0 10.0 0.00 0.00 0.00 52 1015.1
20260503030030 52 297 7.0 12.0 0.00 0.00 0.00 50 1015.3
20260503024544 52 270 4.0 10.0 0.00 0.00 0.00 50 1015.3